Waarnemingen

Advertentie
Mijn weer
Chivenor, Groot Brittannië (3707): temperatuur & dauwpunt: 15.01.2018 12:00:00 - 21.01.2018 12:00:00 (GMT)Chivenor, Groot Brittannië (3707): temperatuur -20cm & temperatuur -100cm: 15.01.2018 12:00:00 - 21.01.2018 12:00:00 (GMT)Chivenor, Groot Brittannië (3707): windsnelheid & windstoten: 15.01.2018 12:00:00 - 21.01.2018 12:00:00 (GMT)Chivenor, Groot Brittannië (3707): windrichting: 15.01.2018 12:00:00 - 21.01.2018 12:00:00 (GMT)Chivenor, Groot Brittannië (3707): luchtdruk: 15.01.2018 12:00:00 - 21.01.2018 12:00:00 (GMT)Chivenor, Groot Brittannië (3707): zicht: 15.01.2018 12:00:00 - 21.01.2018 12:00:00 (GMT)Chivenor, Groot Brittannië (3707): neerslag: 15.01.2018 12:00:00 - 21.01.2018 12:00:00 (GMT)
Datum & Tijd tt [°C] td [°C] tt -20cm [°C] tt -100cm [°C] ff [km/u] ff [kn] fx [km/u] fx [kn] dd ppp [hPa] vv [km] rr [mm]
21.01.2018 12:00:00 11,0 10,6 - - 41 22 57 31 WZW 1009,9 7 0,4
21.01.2018 11:00:00 10,8 10,6 - - 42 23 55 30 W 1010,5 6 0,6
21.01.2018 10:00:00 10,7 10,5 - - 39 21 50 27 W 1010,1 7 1,6
21.01.2018 09:00:00 10,3 10,3 - - 18 10 - - WZW 1010,4 3,6 4,2
21.01.2018 08:00:00 6,4 6,2 - - 16 9 - - O 1010,4 3,2 2,0
21.01.2018 07:00:00 5,9 5,7 - - 18 10 - - OZO 1011,3 2,2 0,8
21.01.2018 06:00:00 5,7 5,4 - - 15 8 - - OZO 1012,1 2,1 0,8
21.01.2018 05:00:00 5,3 4,8 - - 11 6 - - O 1012,7 4,4 0,0
21.01.2018 04:00:00 5,3 4,7 - - 11 6 - - O 1013,3 40 0,0
21.01.2018 03:00:00 5,2 4,6 - - 13 7 - - O 1013,4 35 0,4
21.01.2018 02:00:00 5,2 4,4 - - 5 3 - - ZZO 1013,1 28 0,0
21.01.2018 01:00:00 4,9 3,7 - - 2 1 - - ZZW 1013,5 35 0,0
21.01.2018 00:00:00 4,9 3,6 - - 4 2 - - W 1012,4 35 0,0
20.01.2018 23:00:00 5,9 3,8 - - 9 5 - - NW 1012,0 50 0,0
20.01.2018 22:00:00 6,8 4,4 - - 15 8 - - N 1010,7 50 0,0
20.01.2018 21:00:00 7,5 5,7 - - 15 8 - - NW 1009,4 45 0,0
20.01.2018 20:00:00 8,0 6,5 - - 26 14 - - NW 1007,7 21 0,0
20.01.2018 19:00:00 8,4 7,2 - - 31 17 48 26 NW 1006,2 17 0,4
20.01.2018 18:00:00 9,2 8,0 - - 29 16 55 30 WNW 1004,9 8 0,0
20.01.2018 17:00:00 9,6 7,4 - - 39 21 59 32 WNW 1003,3 12 0,0
20.01.2018 16:00:00 10,2 7,9 - - 37 20 48 26 WNW 1001,7 11 0,0
20.01.2018 15:00:00 10,2 7,9 - - 35 19 54 29 WNW 999,9 12 0,0
20.01.2018 14:00:00 10,7 10,0 - - 35 19 54 29 W 998,9 10 0,0
20.01.2018 13:00:00 10,2 9,9 - - 35 19 48 26 W 998,6 8 0,4
20.01.2018 12:00:00 9,3 8,9 - - 26 14 - - W 999,0 4,6 0,2
20.01.2018 11:00:00 9,0 8,2 - - 18 10 - - W 999,8 14 0,0
20.01.2018 10:00:00 6,6 6,1 - - 2 1 - - O 999,6 45 0,0
20.01.2018 09:00:00 6,5 6,0 - - 8 4 - - O 999,3 45 0,0
20.01.2018 08:00:00 5,9 5,5 - - 11 6 - - O 998,4 28 0,0
20.01.2018 07:00:00 5,7 5,2 - - 18 10 - - O 998,7 6 0,0
20.01.2018 06:00:00 5,5 4,9 - - 21 11 - - O 999,0 7 0,2
20.01.2018 05:00:00 5,1 4,7 - - 21 11 - - OZO 1000,1 12 0,2
20.01.2018 04:00:00 5,1 4,6 - - 15 8 - - O 1001,6 8 0,6
20.01.2018 03:00:00 5,0 4,5 - - 13 7 - - OZO 1003,8 14 0,8
20.01.2018 02:00:00 4,9 4,2 - - 8 4 - - ZZO 1005,9 12 1,0
20.01.2018 01:00:00 5,1 4,3 - - 8 4 - - Z 1007,8 10 0,8
20.01.2018 00:00:00 5,5 4,3 - - 15 8 - - WZW 1009,2 10 0,8
19.01.2018 23:00:00 5,9 3,9 - - 15 8 - - ZW 1010,0 19 0,0
19.01.2018 22:00:00 6,3 3,4 - - 13 7 - - W 1010,7 30 0,0
19.01.2018 21:00:00 5,8 3,3 - - 16 9 - - WNW 1011,1 22 0,2
19.01.2018 20:00:00 6,4 3,9 - - 22 12 - - WZW 1011,5 25 0,0
19.01.2018 19:00:00 5,7 2,4 - - 29 16 - - W 1011,4 35 0,2
19.01.2018 18:00:00 5,8 2,0 - - 15 8 - - WNW 1011,6 25 0,0
19.01.2018 17:00:00 6,0 1,9 - - 24 13 - - WNW 1011,8 17 0,0
19.01.2018 16:00:00 6,1 2,5 - - 28 15 59 32 WNW 1011,7 35 1,2
19.01.2018 15:00:00 6,9 1,7 - - 28 15 - - WNW 1011,3 35 0,0
19.01.2018 14:00:00 7,3 1,9 - - 24 13 - - W 1011,6 45 0,0
19.01.2018 13:00:00 6,5 3,2 - - 21 11 50 27 W 1011,7 35 0,0
19.01.2018 12:00:00 7,5 1,8 - - 28 15 - - W 1011,7 22 0,0
19.01.2018 11:00:00 7,1 2,1 - - 26 14 - - W 1012,2 27 0,0
19.01.2018 10:00:00 6,1 3,6 - - 21 11 50 27 WNW 1011,8 27 0,2
19.01.2018 09:00:00 6,4 1,9 - - 28 15 48 26 WNW 1011,1 27 0,0
19.01.2018 08:00:00 5,6 1,8 - - 28 15 48 26 W 1010,9 30 0,0
19.01.2018 07:00:00 5,9 0,7 - - 35 19 46 25 WNW 1010,7 40 0,0
19.01.2018 06:00:00 6,0 1,9 - - 29 16 - - WNW 1010,4 40 0,0
19.01.2018 05:00:00 5,6 1,7 - - 29 16 - - WNW 1010,4 30 0,0
19.01.2018 04:00:00 4,6 2,0 - - 37 20 57 31 W 1010,3 15 0,2
19.01.2018 03:00:00 5,8 1,2 - - 22 12 - - WNW 1009,8 50 0,0
19.01.2018 02:00:00 5,8 2,2 - - 24 13 - - W 1009,4 40 0,0
19.01.2018 01:00:00 5,8 2,0 - - 24 13 - - WNW 1009,5 24 0,0
19.01.2018 00:00:00 5,5 3,0 - - 31 17 50 27 W 1009,4 30 0,2
18.01.2018 23:00:00 5,2 1,6 - - 15 8 52 28 WNW 1009,3 35 0,0
18.01.2018 22:00:00 6,9 1,3 - - 34 18 - - WNW 1009,1 40 0,0
18.01.2018 21:00:00 5,6 3,1 - - 22 12 50 27 W 1009,1 18 0,0
18.01.2018 20:00:00 6,4 1,3 - - 35 19 57 31 WNW 1008,8 25 0,0
18.01.2018 19:00:00 6,4 1,6 - - 29 16 57 31 WNW 1008,1 40 0,0
18.01.2018 18:00:00 7,0 2,0 - - 35 19 55 30 WNW 1007,7 35 0,0
18.01.2018 17:00:00 6,6 2,5 - - 35 19 54 29 WNW 1007,1 35 0,0
18.01.2018 16:00:00 6,8 3,1 - - 42 23 59 32 WNW 1006,2 30 0,0
18.01.2018 15:00:00 7,8 2,7 - - 37 20 50 27 WNW 1005,4 30 0,0
18.01.2018 14:00:00 7,2 3,4 - - 35 19 50 27 WNW 1005,2 26 0,0
18.01.2018 13:00:00 8,7 3,8 - - 37 20 54 29 WNW 1005,1 50 0,0
18.01.2018 12:00:00 8,6 5,7 - - 29 16 - - W 1005,0 27 0,0
18.01.2018 11:00:00 9,0 5,1 - - 28 15 - - W 1004,7 23 0,0
18.01.2018 10:00:00 7,9 4,6 - - 29 16 - - W 1004,5 30 0,0
18.01.2018 09:00:00 7,5 5,4 - - 24 13 48 26 WNW 1004,2 20 0,4
18.01.2018 08:00:00 7,6 4,8 - - 37 20 50 27 WNW 1003,7 5 0,0
18.01.2018 07:00:00 7,9 5,0 - - 28 15 52 28 WNW 1003,0 15 0,0
18.01.2018 06:00:00 8,5 4,7 - - 39 21 67 36 WNW 1002,6 17 0,0
18.01.2018 05:00:00 9,0 5,0 - - 42 23 70 38 WNW 1001,8 11 0,0
18.01.2018 04:00:00 9,4 5,0 - - 55 30 85 46 WNW 1000,9 10 0,0
18.01.2018 03:00:00 10,4 6,7 - - 59 32 93 50 W 999,6 6 0,0
18.01.2018 02:00:00 11,2 9,3 - - 67 36 94 51 W 997,9 7 0,2
18.01.2018 01:00:00 11,2 9,7 - - 65 35 91 49 WZW 997,9 9 0,0
18.01.2018 00:00:00 10,7 9,8 - - 63 34 85 46 WZW 999,1 3,8 0,0
17.01.2018 23:00:00 10,6 9,3 - - 70 38 93 50 WZW 1000,2 5 0,8
17.01.2018 22:00:00 9,8 8,8 - - 65 35 87 47 WZW 1001,2 4,1 2,0
17.01.2018 21:00:00 7,8 7,0 - - 26 14 - - ZW 1003,8 3,2 1,0
17.01.2018 20:00:00 7,8 6,3 - - 34 18 46 25 ZW 1006,5 9 1,2
17.01.2018 19:00:00 7,4 6,2 - - 29 16 46 25 WZW 1008,9 5 1,4
17.01.2018 18:00:00 7,5 4,9 - - 35 19 50 27 WZW 1010,2 14 0,0
17.01.2018 17:00:00 7,6 4,7 - - 34 18 48 26 WZW 1010,6 12 0,2
17.01.2018 16:00:00 7,8 3,0 - - 28 15 48 26 W 1011,6 13 0,0
17.01.2018 15:00:00 7,9 2,7 - - 35 19 48 26 W 1012,2 15 0,0
17.01.2018 14:00:00 7,8 2,7 - - 34 18 52 28 W 1012,7 16 0,0
17.01.2018 13:00:00 7,0 3,2 - - 31 17 57 31 W 1013,2 16 0,0
17.01.2018 12:00:00 7,8 1,5 - - 42 23 59 32 WNW 1012,9 21 0,0
17.01.2018 11:00:00 7,6 2,0 - - 44 24 65 35 WNW 1012,4 21 0,0
17.01.2018 10:00:00 7,2 2,1 - - 46 25 68 37 WNW 1011,6 16 0,0
17.01.2018 09:00:00 7,2 1,6 - - 46 25 65 35 WNW 1010,8 14 0,0
17.01.2018 08:00:00 7,0 1,2 - - 46 25 65 35 WNW 1009,7 14 0,0
17.01.2018 07:00:00 6,8 0,2 - - 50 27 68 37 WNW 1009,0 12 0,0
17.01.2018 06:00:00 6,6 0,2 - - 48 26 74 40 WNW 1008,0 15 0,0
17.01.2018 05:00:00 6,5 0,7 - - 57 31 81 44 WNW 1006,8 14 0,0
17.01.2018 04:00:00 6,0 1,0 - - 55 30 78 42 WNW 1005,5 12 0,0
17.01.2018 03:00:00 5,8 -0,1 - - 55 30 83 45 WNW 1004,0 13 0,0
17.01.2018 02:00:00 5,6 0,9 - - 59 32 83 45 WNW 1002,7 18 0,0
17.01.2018 01:00:00 5,5 0,3 - - 57 31 83 45 WNW 1001,7 24 0,0
17.01.2018 00:00:00 5,1 0,4 - - 61 33 89 48 WNW 1001,2 15 0,2
16.01.2018 23:00:00 5,5 -0,5 - - 57 31 87 47 WNW 1000,3 25 0,0
16.01.2018 22:00:00 5,3 -0,6 - - 54 29 87 47 WNW 999,3 26 0,0
16.01.2018 21:00:00 4,2 1,6 - - 50 27 102 55 WNW 998,9 23 0,2
16.01.2018 20:00:00 5,1 2,1 - - 41 22 63 34 WNW 998,0 18 1,0
16.01.2018 19:00:00 3,8 0,3 - - 59 32 78 42 NW 998,2 10 0,4
16.01.2018 18:00:00 5,8 1,0 - - 42 23 63 34 WNW 997,8 21 0,6
16.01.2018 17:00:00 5,6 3,0 - - 46 25 74 40 W 997,2 9 0,2
16.01.2018 16:00:00 6,3 3,7 - - 42 23 68 37 W 997,4 7 0,4
16.01.2018 15:00:00 6,6 4,5 - - 39 21 70 38 W 997,8 14 0,4
16.01.2018 14:00:00 6,8 4,2 - - 48 26 65 35 W 998,5 13 0,2
16.01.2018 13:00:00 6,1 3,5 - - 37 20 72 39 W 999,6 15 0,2
16.01.2018 12:00:00 7,7 2,5 - - 35 19 57 31 WNW 1000,1 18 0,0
16.01.2018 11:00:00 7,5 1,9 - - 42 23 72 39 WNW 1000,6 18 0,0
16.01.2018 10:00:00 7,4 2,3 - - 46 25 63 34 WNW 1000,2 20 0,0
16.01.2018 09:00:00 7,4 2,6 7,2 7,9 39 21 63 34 WNW 999,6 17 0,0
16.01.2018 08:00:00 7,3 2,1 - - 46 25 72 39 WNW 998,9 15 0,0
16.01.2018 07:00:00 7,8 2,0 - - 52 28 68 37 WNW 998,3 23 0,0
16.01.2018 06:00:00 6,4 3,8 - - 37 20 80 43 WNW 998,2 13 0,0
16.01.2018 05:00:00 6,8 3,7 - - 37 20 59 32 WNW 997,7 14 0,2
16.01.2018 04:00:00 7,9 3,2 - - 46 25 67 36 WNW 997,7 12 0,0
16.01.2018 03:00:00 7,6 3,3 - - 52 28 76 41 WNW 997,8 25 0,0
16.01.2018 02:00:00 8,7 5,0 - - 52 28 70 38 WNW 996,9 18 0,0
16.01.2018 01:00:00 8,4 6,3 - - 39 21 72 39 W 996,5 9 0,6
16.01.2018 00:00:00 8,9 6,3 - - 37 20 61 33 W 997,4 9 0,2
15.01.2018 23:00:00 8,1 6,2 - - 46 25 70 38 W 997,4 7 0,0
15.01.2018 22:00:00 8,7 6,3 - - 35 19 55 30 W 997,4 11 0,0
15.01.2018 21:00:00 8,8 5,9 - - 39 21 59 32 W 997,6 10 0,0
15.01.2018 20:00:00 9,1 6,0 - - 29 16 55 30 W 997,7 14 0,0
15.01.2018 19:00:00 8,9 6,1 - - 34 18 52 28 W 997,9 13 0,0
15.01.2018 18:00:00 9,1 6,3 - - 34 18 46 25 W 997,9 14 0,0
15.01.2018 17:00:00 9,0 5,8 - - 35 19 54 29 W 998,1 15 0,0
15.01.2018 16:00:00 9,0 6,1 - - 29 16 55 30 W 997,9 15 0,0
15.01.2018 15:00:00 9,3 5,8 - - 37 20 57 31 W 997,8 14 0,0
15.01.2018 14:00:00 10,1 6,7 - - 35 19 55 30 W 997,2 19 0,0
15.01.2018 13:00:00 10,0 8,1 - - 35 19 57 31 W 997,2 11 0,0
15.01.2018 12:00:00 10,3 9,5 - - 34 18 54 29 W 997,1 8 0,2

tt = temperatuur
td = dauwpunt
tt -20cm = temperatuur -20cm
tt -100cm = temperatuur -100cm
ff = windsnelheid
fx = windstoten
dd = windrichting
ppp = luchtdruk
vv = zicht
rr = neerslag

Weerstations in de omgeving